Weather History for KRSL - August, 2014

Change the Weather History Date:

Friday, August 8, 2014

  Actual Average (KHLC) Record (KHLC)
Temperature  
Mean Temperature 77 °F 78 °F  
Max Temperature 89 °F 91 °F 112 °F (1934)
Min Temperature 66 °F 65 °F 46 °F (1989)
Cooling Degree Days 12    
Growing Degree Days 27 (Base 50)    
Moisture  
Dew Point 66 °F    
Average Humidity 75    
Maximum Humidity 96    
Minimum Humidity 46    
Precipitation  
Precipitation 0.45 in 0.09 in - ()
Month to date precipitation 0.76  
Year to date precipitation 15.73  
Sea Level Pressure  
Sea Level Pressure 29.93 in    
Wind  
Wind Speed 12 mph (SW)    
Max Wind Speed 25 mph    
Max Gust Speed 34 mph    
Visibility 9 miles    
Events Rain , Thunderstorm    
T = Trace of Precipitation, MM = Missing Value Source: NWS Daily Summary

Daily Weather History Graph

Daily Weather History Graph

Search for Another Location

Airport or City:

Trip Planner

Search our weather history database for the weather conditions in past years. The results will help you decide how hot, cold, wet, or windy it might be!

Date:

Astronomy

Aug. 08, 2014 Rise Set
Actual Time 6:42 AM CDT 8:38 PM CDT
Civil Twilight 6:13 AM CDT 9:07 PM CDT
Nautical Twilight 5:38 AM CDT 9:42 PM CDT
Astronomical Twilight 5:00 AM CDT 10:20 PM CDT
Moon 6:51 PM CDT (8/8) 4:17 AM CDT (8/8)
Length of Visible Light 14h 54m
Length of Day
13h 55m
Waxing Gibbous, 94% of the Moon is Illuminated
Aug 8
Waxing Gibbous
Aug 10
Full
Aug 17
Last Quarter
Aug 25
New
Sep 2
First Quarter

Hourly Weather History & Observations

Time (CDT) Temp. Heat Index Dew Point Humidity Pressure Visibility Wind Dir Wind Speed Gust Speed Precip Events Conditions
12:53 AM 73.0 °F - 66.9 °F 81% 29.96 in 10.0 mi NW 23.0 mph 32.2 mph N/A   Mostly Cloudy
1:30 AM 71.1 °F - 68.0 °F 90% 30.00 in 10.0 mi NW 12.7 mph - 0.01 in Rain , Thunderstorm Light Rain
1:53 AM 70.0 °F - 66.9 °F 90% 29.96 in 10.0 mi WNW 17.3 mph - 0.02 in Rain Light Rain
2:09 AM 69.1 °F - 66.9 °F 93% 30.03 in 4.0 mi WSW 23.0 mph 34.5 mph 0.10 in Rain Heavy Rain
2:19 AM 69.1 °F - 66.9 °F 93% 30.02 in 2.5 mi SW 25.3 mph 31.1 mph 0.18 in Rain Heavy Rain
2:26 AM 68.0 °F - 66.9 °F 96% 30.02 in 3.0 mi SW 23.0 mph 33.4 mph 0.22 in Rain Heavy Rain
2:53 AM 68.0 °F - 66.0 °F 93% 29.93 in 6.0 mi SSW 10.4 mph - 0.29 in Rain Rain
3:53 AM 69.1 °F - 64.9 °F 87% 29.86 in 10.0 mi SE 9.2 mph - 0.14 in Rain Light Rain
4:53 AM 70.0 °F - 64.0 °F 81% 29.88 in 10.0 mi NW 10.4 mph 18.4 mph 0.00 in   Mostly Cloudy
5:14 AM 68.0 °F - 64.9 °F 90% 29.95 in 10.0 mi NNW 9.2 mph - N/A   Partly Cloudy
5:53 AM 68.0 °F - 64.0 °F 87% 29.91 in 10.0 mi Calm Calm - N/A   Clear
6:53 AM 66.9 °F - 64.0 °F 90% 29.93 in 10.0 mi South 6.9 mph - N/A   Clear
7:53 AM 68.0 °F - 64.9 °F 90% 29.95 in 10.0 mi SW 3.5 mph - N/A   Partly Cloudy
8:53 AM 70.0 °F - 66.0 °F 87% 29.96 in 10.0 mi WNW 4.6 mph - N/A   Clear
9:53 AM 73.0 °F - 66.0 °F 79% 29.96 in 10.0 mi Calm Calm - N/A   Clear
10:53 AM 77.0 °F - 66.9 °F 71% 29.94 in 10.0 mi Calm Calm - N/A   Clear
11:53 AM 81.0 °F 82.7 °F 64.9 °F 58% 29.94 in 10.0 mi Variable 4.6 mph - N/A   Clear
12:53 PM 82.0 °F 83.1 °F 63.0 °F 52% 29.93 in 10.0 mi Calm Calm - N/A   Clear
1:53 PM 84.0 °F 85.4 °F 64.0 °F 51% 29.92 in 10.0 mi South 3.5 mph - N/A   Clear
2:53 PM 87.1 °F 88.3 °F 64.0 °F 46% 29.90 in 10.0 mi Variable 4.6 mph - N/A   Clear
3:53 PM 88.0 °F 89.6 °F 64.9 °F 46% 29.90 in 10.0 mi SW 8.1 mph - N/A   Clear
4:53 PM 87.1 °F 88.3 °F 64.0 °F 46% 29.88 in 10.0 mi WSW 5.8 mph - N/A   Clear
5:53 PM 87.1 °F 88.3 °F 64.0 °F 46% 29.87 in 10.0 mi Calm Calm - N/A   Clear
6:53 PM 87.1 °F 89.2 °F 66.0 °F 49% 29.86 in 10.0 mi South 6.9 mph - N/A   Clear
7:53 PM 84.0 °F 86.5 °F 66.9 °F 56% 29.87 in 10.0 mi South 5.8 mph - N/A   Clear
8:53 PM 78.1 °F - 70.0 °F 76% 29.88 in 10.0 mi South 5.8 mph - N/A   Clear
9:53 PM 75.0 °F - 70.0 °F 84% 29.90 in 10.0 mi South 8.1 mph - N/A   Clear
10:53 PM 73.9 °F - 69.1 °F 85% 29.94 in 10.0 mi South 5.8 mph - N/A   Clear